OneWeb SL0455

operational
NORAD ID: 51645 Int'l Des: 2022-012 Owner: ONEWEBN Country: UK Constellation: oneweb
LEOCIRCULARPOLAR

Über OneWeb SL0455

Beschreibung wird geladen...

Live-Position

3D-Globus wird geladen...

Nächste Überflüge

Höhenverlauf

Altitude vs Time

uPlot chart will show altitude changes over time

Zweizeiliger Elementsatz

1 51645U 22012Z 25354.65594997 .00000234 00000-0 94879-4 0 9991
2 51645 87.5297 322.6842 0017369 10.7054 349.4503 14.23532645200747
Epoch: 20. Dez. 2025 • Age: 12 hours

Aktueller Status

Höhe 828.0 km
Geschwindigkeit 7.44 km/s
Subsatellitenpunkt 51.78°N, 12.84°W
Startdatum 10. Feb. 2022
Alter 3.8 years
Typ internet

Technische Details

Klassifizierung Payload
Masse 148.00 kg
Trockenmasse 140.00 kg
Gesamtmasse 148.00 kg
Länge 1.30 m
Durchmesser 1.00 m
Spannweite 5.00 m
Form Trapezoid+2 pan
Hersteller ONEWUS
Bus-Typ ARROW
Phasenstatus In Orbit
Besitzer/Staat ONEWEBN/UK

Große Konstellationen

Loading constellations...